Wind_Speed
30 35 39 43 47 50 53 54 54 55 56 57 58 57 56 54 53 52 51 49 47 46 45 43 42 42 41 40 40 39 38 38 38 39 39 38 37 37 37 37 37 37 37
25 29 35 40 43 45 47 50 51 52 54 53 55 55 55 54 53 51 49 48 49 47 45 45 44 43 43 43 42 41 41 41 41 42 42 41 40 39 39 39 38 39 39
21 25 30 34 36 39 41 43 47 49 50 50 52 54 54 54 52 50 49 48 48 48 46 45 46 46 45 45 44 43 43 42 43 44 44 42 41 41 40 40 40 41 41
18 21 26 28 30 33 36 37 39 43 45 48 49 50 51 50 50 49 49 48 49 48 47 46 46 47 47 46 46 45 45 45 45 46 45 44 43 43 43 42 43 43 43
16 19 21 22 24 28 32 33 35 40 41 44 46 47 47 47 48 49 49 49 48 48 47 46 46 47 46 47 46 45 46 47 47 47 46 45 46 46 46 46 46 46 46
14 15 16 18 19 22 27 29 30 35 37 40 43 45 44 44 45 45 46 47 47 47 48 47 47 47 47 46 46 45 45 46 46 45 46 46 47 47 47 48 48 48 48
9 12 14 17 18 19 22 24 24 28 33 36 37 40 41 40 41 41 43 45 45 45 47 46 47 47 47 47 47 46 46 45 45 46 47 47 48 48 48 49 49 49 48
9 9 10 13 14 17 19 20 20 22 26 31 33 36 38 37 37 38 39 40 41 43 44 45 46 47 47 46 45 46 47 47 48 48 48 49 50 50 49 49 49 49 49
7 8 8 11 12 14 16 18 19 20 22 25 29 33 34 35 34 35 36 38 40 41 43 42 44 45 45 45 45 46 47 47 48 49 50 50 51 51 51 51 52 52 52
8 9 7 8 8 11 13 16 19 19 19 21 24 28 29 29 30 32 34 36 37 38 41 42 42 45 47 48 47 48 47 47 48 50 52 52 52 52 53 53 53 53 53
7 6 5 6 7 9 10 12 15 15 16 17 20 22 24 25 26 28 29 31 33 34 37 38 40 41 43 43 44 44 45 46 48 50 52 52 52 53 53 54 54 53 53
6 5 5 5 6 8 9 9 10 12 14 15 18 20 22 24 24 26 27 28 31 33 34 35 36 37 39 41 42 42 43 45 46 47 48 49 51 53 53 52 52 52 51
6 5 5 4 5 6 7 7 8 9 11 13 15 17 20 22 24 26 27 28 31 33 34 35 35 37 38 39 40 41 42 43 45 46 47 48 51 51 50 51 51 51 52
5 5 4 4 5 5 6 6 6 7 9 12 14 16 18 22 25 27 28 29 31 33 35 37 37 38 39 40 41 42 43 44 46 46 47 48 50 51 51 51 51 52 53
4 4 3 3 3 4 4 6 7 6 8 11 14 17 20 22 25 27 28 30 33 34 36 38 39 40 40 42 42 43 44 45 46 47 48 48 49 50 50 50 51 52 52
2 2 2 1 1 3 5 7 10 11 12 14 17 20 22 24 26 27 29 31 33 34 35 37 39 41 43 44 45 45 45 46 46 46 47 47 47 47 48 49 50 50 50
1 1 2 3 5 7 9 12 13 14 16 18 19 22 25 27 29 30 31 32 33 34 35 37 38 40 42 43 45 46 46 47 47 47 47 47 46 47 47 47 47 48 47
3 4 5 6 8 10 13 15 17 18 20 22 23 24 26 28 30 32 33 33 34 34 35 37 38 39 40 41 42 43 44 46 46 46 47 46 45 45 45 45 46 45 45
6 7 9 11 12 14 16 18 19 21 23 24 25 26 28 30 32 33 34 35 35 35 36 38 38 39 40 41 41 41 43 44 45 44 44 44 44 44 45 45 46 46 45
10 11 13 15 16 18 20 22 23 24 25 27 29 30 32 33 34 35 36 37 38 38 39 39 39 39 41 41 42 43 44 44 45 44 44 44 43 43 44 44 44 44 44
14 15 16 17 19 20 22 24 25 26 28 30 32 34 35 35 35 36 37 39 39 40 40 40 40 41 42 42 43 43 44 44 44 44 44 44 44 44 44 43 42 42 42
16 18 19 20 21 22 23 25 27 28 30 32 33 34 35 36 37 37 38 39 40 41 41 41 41 41 41 42 42 43 43 43 43 43 42 43 43 43 43 42 40 41 41
19 20 21 22 24 25 27 28 29 31 33 34 34 35 35 36 37 39 40 40 41 41 41 40 40 41 42 43 44 43 43 42 42 42 42 42 42 41 41 40 40 40 40
21 22 24 25 27 28 29 31 32 34 35 35 35 35 36 37 38 39 40 40 40 41 40 40 41 42 43 43 43 43 43 43 43 43 42 42 41 40 40 40 39 40 40
23 25 26 27 29 30 31 33 34 35 35 36 36 36 37 38 38 38 39 39 39 40 40 40 41 41 42 42 42 41 42 43 43 42 42 41 40 40 40 39 39 39 40
26 27 28 29 30 32 33 34 35 35 35 36 36 38 39 39 39 38 38 38 38 38 38 39 39 39 39 39 40 40 41 41 41 41 39 39 38 37 37 37 37 38 38
Wind_Direction
224 219 220 219 217 216 217 218 218 219 219 219 220 223 224 224 226 229 231 233 235 238 241 241 242 243 245 247 249 250 251 253 255 257 258 259 260 261 263 266 268 270 272
218 216 215 213 214 216 217 220 220 219 220 220 220 221 223 224 227 230 232 234 236 238 240 241 242 243 245 247 249 252 253 255 257 258 259 260 261 263 264 266 268 270 272
210 213 211 210 212 212 215 218 219 218 220 221 220 220 221 224 228 229 230 233 236 238 239 240 241 243 246 249 250 251 253 256 257 258 260 261 263 263 264 266 268 270 271
202 205 206 208 210 211 213 218 219 217 220 220 220 221 221 224 226 228 230 233 235 236 237 239 243 246 247 249 251 252 255 256 257 259 261 263 264 264 264 266 268 270 271
191 193 196 206 215 215 216 218 220 219 220 219 219 221 221 224 226 227 230 231 234 234 236 240 244 247 248 250 253 255 256 257 259 260 262 263 264 265 266 266 267 269 271
184 185 196 201 208 209 214 214 213 218 219 219 218 220 220 222 224 225 228 231 234 236 238 240 244 245 248 250 253 255 257 258 258 260 261 263 264 264 266 268 268 269 270
177 183 189 196 203 204 207 208 213 218 219 218 218 219 217 221 224 226 230 233 235 237 238 240 244 246 248 251 253 255 257 258 259 261 262 263 264 265 267 268 269 269 269
165 170 188 197 201 206 209 211 216 218 220 219 217 220 220 224 226 227 231 233 235 237 240 242 245 248 250 251 253 256 257 258 259 260 261 262 263 265 267 269 269 270 271
159 166 181 194 200 207 211 211 211 214 218 219 221 222 221 226 230 231 234 236 238 240 242 245 248 248 250 252 255 257 259 259 259 261 262 262 264 265 267 269 270 272 273
148 161 176 185 192 197 205 209 210 214 216 222 225 224 223 228 235 238 238 239 242 245 246 247 248 252 254 256 257 258 258 260 261 262 263 264 264 265 267 269 271 273 274
142 154 175 185 186 190 198 208 212 214 217 225 227 224 225 232 240 243 244 246 249 251 249 250 253 254 256 259 261 259 259 262 264 266 266 265 266 266 267 269 270 271 273
136 149 163 173 180 184 191 202 210 215 219 226 227 231 235 241 252 257 257 258 258 257 255 256 259 260 261 261 261 260 262 263 264 266 266 266 265 265 267 269 270 271 272
114 122 144 161 166 175 189 197 210 217 221 230 238 243 244 249 257 260 261 264 263 260 258 258 260 262 262 261 261 261 263 264 265 266 267 267 267 267 268 269 270 270 271
94 95 115 152 170 183 193 201 208 225 237 246 250 250 252 257 262 263 265 265 263 261 259 260 261 262 261 261 261 263 265 265 267 269 269 269 268 269 269 270 269 270 270
80 84 100 117 156 190 207 221 230 238 249 257 258 256 263 268 267 266 267 268 264 262 261 261 263 264 263 263 263 265 266 267 269 270 271 270 269 270 270 269 269 270 270
86 90 117 138 220 246 247 251 252 254 262 267 269 268 270 273 272 272 273 272 267 264 264 265 265 265 265 264 265 267 268 269 270 270 270 270 270 270 271 270 269 269 268
8 324 308 272 271 269 270 269 267 267 271 273 274 274 274 275 275 277 276 273 270 268 268 269 269 270 270 269 268 268 269 269 271 270 270 271 270 270 271 270 269 268 267
319 307 300 293 286 278 276 277 277 277 278 279 279 279 278 278 278 278 277 275 273 271 270 271 273 273 272 272 272 271 270 271 272 271 270 269 270 270 270 270 269 268 265
315 302 297 295 292 288 283 282 282 282 282 283 284 282 281 280 280 280 277 275 273 272 272 273 275 274 273 274 273 272 272 272 271 270 269 269 270 269 268 268 268 266 262
319 310 303 300 297 293 289 288 287 286 286 287 286 285 283 283 281 280 278 277 276 274 274 275 275 274 273 273 273 271 271 272 272 269 269 268 268 267 267 267 266 263 260
318 312 307 304 302 299 297 294 292 291 290 290 290 289 287 285 283 282 280 278 278 278 278 277 276 274 273 273 273 272 271 270 270 268 267 267 266 267 266 265 263 261 260
317 315 311 307 305 304 303 302 300 298 296 295 294 292 289 287 285 282 280 279 279 278 278 278 276 274 273 272 272 271 270 268 268 267 267 266 266 266 264 263 262 261 260
316 317 315 311 307 306 305 304 303 301 299 297 297 296 295 292 288 285 282 281 280 279 279 278 277 275 273 273 272 270 269 268 269 269 268 267 266 265 264 261 260 260 260
313 314 314 312 310 308 307 305 304 303 301 299 297 297 296 295 292 288 285 282 281 280 279 278 278 277 275 273 271 270 269 268 269 269 269 268 267 265 263 260 258 259 259
310 311 312 311 310 309 308 307 306 304 303 301 299 299 298 297 296 293 288 284 282 281 280 279 279 277 275 273 271 270 270 268 268 268 268 268 267 266 264 262 260 260 260
309 310 311 311 310 309 309 308 307 304 303 302 301 300 300 299 297 294 292 287 284 282 282 282 280 279 277 275 272 270 270 270 269 269 268 267 266 265 263 261 260 260 260
Height
5628 5632 5637 5643 5650 5658 5666 5674 5683 5691 5700 5709 5718 5727 5735 5743 5750 5756 5762 5767 5772 5777 5781 5785 5789 5792 5794 5797 5799 5801 5802 5803 5804 5805 5807 5807 5808 5809 5809 5809 5809 5809 5808
5624 5628 5633 5638 5645 5652 5659 5668 5675 5684 5691 5699 5708 5717 5726 5734 5741 5747 5753 5758 5763 5768 5772 5777 5780 5783 5786 5788 5790 5792 5794 5795 5796 5797 5797 5798 5800 5800 5800 5800 5800 5800 5800
5622 5625 5630 5635 5641 5647 5654 5661 5669 5676 5684 5692 5699 5707 5716 5724 5731 5738 5744 5750 5754 5759 5763 5767 5771 5774 5776 5779 5781 5783 5785 5786 5787 5787 5788 5788 5790 5791 5791 5791 5791 5791 5790
5620 5623 5627 5632 5638 5643 5649 5656 5662 5669 5676 5684 5692 5700 5708 5716 5723 5730 5735 5740 5745 5749 5754 5758 5761 5764 5767 5769 5771 5773 5774 5775 5777 5777 5777 5778 5779 5779 5781 5782 5781 5780 5780
5620 5622 5626 5631 5635 5639 5645 5651 5657 5664 5670 5677 5685 5693 5700 5707 5713 5720 5726 5731 5736 5740 5744 5748 5751 5754 5757 5759 5761 5762 5763 5764 5766 5766 5767 5767 5767 5767 5768 5770 5771 5770 5769
5620 5623 5626 5630 5633 5637 5642 5647 5652 5658 5664 5671 5678 5685 5692 5699 5705 5711 5717 5722 5726 5730 5734 5738 5741 5743 5746 5748 5750 5751 5752 5753 5754 5755 5755 5756 5756 5756 5756 5756 5757 5758 5758
5622 5624 5626 5629 5633 5636 5640 5644 5650 5655 5660 5666 5672 5678 5685 5692 5698 5704 5708 5713 5717 5721 5724 5727 5730 5733 5735 5737 5738 5740 5740 5741 5742 5742 5743 5743 5744 5744 5744 5743 5744 5744 5745
5623 5625 5627 5630 5633 5636 5640 5644 5648 5653 5658 5663 5668 5673 5679 5685 5691 5696 5700 5704 5708 5712 5714 5717 5720 5722 5724 5725 5726 5727 5728 5729 5730 5730 5730 5731 5731 5731 5731 5731 5731 5730 5731
5624 5626 5627 5630 5632 5635 5639 5643 5647 5651 5656 5661 5665 5670 5675 5680 5684 5688 5692 5696 5699 5702 5704 5706 5708 5710 5712 5714 5715 5716 5716 5717 5717 5718 5718 5718 5719 5719 5719 5718 5718 5717 5717
5626 5627 5628 5630 5632 5635 5639 5642 5646 5650 5654 5658 5662 5666 5670 5674 5678 5682 5685 5688 5690 5692 5694 5696 5698 5699 5701 5702 5702 5703 5703 5704 5704 5705 5705 5705 5705 5705 5705 5705 5704 5703 5703
5627 5628 5629 5631 5633 5635 5638 5642 5645 5648 5652 5655 5658 5662 5665 5669 5672 5675 5678 5680 5681 5683 5685 5686 5687 5688 5689 5689 5689 5690 5690 5691 5691 5692 5691 5692 5691 5690 5691 5690 5690 5689 5688
5629 5629 5630 5632 5633 5635 5637 5641 5643 5646 5649 5652 5655 5658 5661 5664 5666 5668 5670 5671 5673 5674 5675 5676 5677 5677 5677 5677 5677 5678 5678 5678 5678 5678 5677 5677 5677 5676 5676 5676 5675 5675 5675
5630 5631 5631 5632 5634 5636 5638 5640 5642 5644 5647 5650 5652 5654 5656 5658 5660 5661 5662 5663 5664 5665 5665 5666 5666 5666 5666 5666 5667 5667 5666 5666 5665 5665 5664 5663 5662 5662 5661 5661 5661 5660 5660
5632 5632 5633 5633 5634 5635 5637 5638 5640 5642 5644 5646 5648 5650 5652 5653 5654 5655 5655 5655 5655 5655 5656 5656 5656 5655 5655 5655 5655 5654 5654 5653 5652 5651 5650 5649 5648 5647 5647 5646 5646 5646 5645
5632 5633 5633 5634 5634 5635 5636 5637 5638 5640 5642 5643 5645 5646 5647 5647 5647 5647 5647 5646 5646 5646 5646 5645 5645 5645 5644 5643 5642 5642 5641 5639 5638 5637 5636 5635 5634 5633 5632 5632 5632 5632 5631
5633 5633 5633 5634 5634 5634 5635 5636 5637 5638 5639 5639 5640 5640 5640 5640 5639 5639 5638 5637 5636 5636 5635 5634 5634 5633 5632 5631 5629 5628 5627 5626 5624 5623 5622 5621 5620 5619 5618 5618 5618 5617 5617
5632 5632 5633 5633 5633 5634 5634 5634 5634 5634 5634 5634 5634 5633 5632 5632 5631 5630 5628 5627 5626 5625 5624 5623 5622 5621 5619 5617 5616 5614 5613 5612 5610 5608 5607 5606 5605 5605 5604 5604 5604 5603 5603
5630 5631 5631 5631 5631 5631 5631 5630 5630 5629 5629 5628 5627 5626 5625 5623 5622 5620 5618 5616 5615 5613 5612 5611 5610 5608 5606 5604 5603 5601 5599 5597 5596 5595 5593 5593 5592 5591 5591 5590 5590 5590 5591
5629 5629 5628 5628 5628 5627 5626 5625 5624 5623 5622 5620 5619 5617 5616 5614 5611 5609 5606 5604 5603 5601 5600 5598 5597 5595 5593 5591 5589 5587 5585 5584 5582 5581 5580 5579 5579 5578 5577 5577 5577 5577 5578
5626 5626 5625 5624 5623 5622 5620 5619 5618 5616 5614 5612 5610 5608 5605 5602 5598 5596 5594 5592 5590 5588 5587 5585 5583 5581 5579 5577 5575 5573 5572 5570 5569 5568 5567 5566 5565 5565 5563 5563 5562 5563 5565
5623 5621 5620 5619 5617 5616 5614 5612 5610 5607 5605 5602 5599 5595 5592 5589 5586 5583 5580 5578 5576 5574 5572 5571 5569 5567 5565 5563 5561 5558 5557 5556 5555 5554 5553 5552 5552 5551 5550 5549 5549 5550 5551
5619 5617 5615 5613 5611 5609 5606 5603 5600 5597 5594 5591 5587 5583 5579 5576 5573 5569 5566 5564 5561 5559 5557 5555 5553 5551 5549 5547 5546 5544 5542 5541 5541 5540 5539 5539 5538 5537 5536 5536 5537 5537 5539
5614 5612 5609 5607 5604 5601 5598 5594 5591 5587 5583 5579 5575 5571 5567 5563 5559 5555 5552 5549 5546 5543 5541 5539 5538 5536 5534 5532 5530 5529 5528 5527 5527 5526 5526 5525 5524 5524 5524 5524 5525 5526 5527
5609 5607 5604 5600 5597 5593 5590 5586 5581 5577 5572 5567 5563 5559 5555 5551 5546 5541 5537 5534 5531 5528 5526 5525 5523 5521 5519 5517 5515 5514 5514 5514 5513 5513 5512 5512 5512 5512 5512 5513 5514 5515 5517
5603 5600 5597 5593 5589 5585 5581 5576 5571 5566 5561 5556 5552 5548 5543 5538 5533 5528 5523 5519 5516 5513 5512 5510 5508 5506 5505 5503 5501 5500 5500 5499 5499 5499 5499 5499 5500 5500 5501 5502 5504 5505 5506
5596 5593 5589 5585 5581 5576 5572 5566 5561 5556 5551 5546 5541 5536 5531 5526 5521 5516 5512 5507 5503 5500 5498 5496 5494 5492 5490 5488 5487 5486 5485 5484 5484 5485 5486 5487 5487 5489 5490 5491 5493 5495 5496